Regional Weather Roundup
Issued by NWS

Home | Current Version | Previous Version | Graphics & Text | Print | Product List | Glossary On
Versions: 1 2 3 4 5 6 7 8 9 10 11 12 13 14 15 16 17 18 19 20 21 22 23 24 25 26 27 28 29 30 31 32 33 34 35 36 37 38 39 40 41 42 43 44 45 46 47 48 49 50
000
ASUS43 KLSX 250610
RWRMO

WEATHER SUMMARY FOR MISSOURI
NATIONAL WEATHER SERVICE SPRINGFIELD MO
100 AM CDT SUN SEP 25 2016

NOTE: "FAIR" INDICATES FEW OR NO CLOUDS BELOW 12,000 FEET WITH NO
       SIGNIFICANT WEATHER AND/OR OBSTRUCTIONS TO VISIBILITY.
       CURRENT SKY AND/OR WEATHER CONDITIONS ARE NOT AVAILABLE FOR
       CHILLICOTHE AND FARMINGTON.

MOZ001>031-035>038-043-044-053-054-250700-
...NORTHERN AND WESTERN MISSOURI...

CITY           SKY/WX    TMP DP  RH WIND       PRES   REMARKS
KANSAS CTY INT RAIN      69  66  90 SE3       30.02S
6HR MIN TEMP:  68; 6HR MAX TEMP:  82; 6HR PCP:  0.41;

KANSAS C DTWN  CLOUDY    71  68  90 N3        30.01F
6HR MIN TEMP:  71; 6HR MAX TEMP:  85; 6HR PCP:  0.11;

LEE`S SUMMIT   CLOUDY    72  66  81 NW8       30.03R
6HR MIN TEMP:  72; 6HR MAX TEMP:  83;

ST JOSEPH      LGT RAIN  69  67  93 E7        29.98F
6HR MIN TEMP:  69; 6HR MAX TEMP:  74; 6HR PCP:  1.04;

CHILLICOTHE      N/A     74  70  87 CALM      30.02R
6HR MIN TEMP:  74; 6HR MAX TEMP:  81;

KIRKSVILLE     CLOUDY    72  67  84 S8        30.03S
6HR MIN TEMP:  72; 6HR MAX TEMP:  78;


$$
MOZ066>068-077>081-088>096-101>105-250700-
...SOUTHWEST MISSOURI...

CITY           SKY/WX    TMP DP  RH WIND       PRES   REMARKS
SPRINGFIELD    CLEAR     73  66  78 SE8       30.05R
6HR MIN TEMP:  73; 6HR MAX TEMP:  83;

JOPLIN         CLOUDY    73  66  78 NW13G18     N/A
6HR MIN TEMP:  73; 6HR MAX TEMP:  84;

BRANSON        CLEAR     73  68  83 S5        30.07S

$$
MOZ032>034-039>042-045>050-055>058-069>072-250700-
...CENTRAL MISSOURI...

CITY           SKY/WX    TMP DP  RH WIND       PRES   REMARKS
COLUMBIA       CLEAR     73  69  87 SE6       30.04F
6HR MIN TEMP:  73; 6HR MAX TEMP:  82;

JEFFERSON CITY CLEAR     73  69  87 E5        30.02F
6HR MIN TEMP:  72; 6HR MAX TEMP:  82;

ROLLA          CLEAR     71  67  87 SE7       30.06S
6HR MIN TEMP:  70; 6HR MAX TEMP:  78;

SEDALIA        CLOUDY    75  69  81 S6        30.03R
6HR MIN TEMP:  74; 6HR MAX TEMP:  82;

WHITEMAN AFB   CLOUDY    75  73  94 S6        30.00R
OSAGE BEACH    CLEAR     72  68  87 S6        30.05S

$$
MOZ051-052-059>065-250700-
...EAST CENTRAL MISSOURI...

CITY           SKY/WX    TMP DP  RH WIND       PRES   REMARKS
ST LOUIS INTL  CLEAR     76  67  73 SE7       30.07S
6HR MIN TEMP:  75; 6HR MAX TEMP:  87;

SPIRIT OF STL  CLEAR     69  68  96 CALM      30.04F FOG
6HR MIN TEMP:  68; 6HR MAX TEMP:  78;

ST CHARLES     CLEAR     70  69  97 NE5       30.05S
6HR MIN TEMP:  70; 6HR MAX TEMP:  80;


$$
MOZ072>076-082>087-097>100-106>115-250700-
...SOUTH CENTRAL AND SOUTHEAST MISSOURI...

CITY           SKY/WX    TMP DP  RH WIND       PRES   REMARKS
CAPE GIRARDEAU CLEAR     70  68  93 CALM      30.06S
6HR MIN TEMP:  69; 6HR MAX TEMP:  80;

FARMINGTON     CLEAR     68  66  93 CALM      30.08F FOG
6HR MIN TEMP:  67; 6HR MAX TEMP:  80;

WEST PLAINS    CLEAR     69  65  86 CALM      30.09S
6HR MIN TEMP:  68; 6HR MAX TEMP:  81;


$$




USA.gov is the U.S. government's official web portal to all federal, state and local government web resources and services.